User: anonymous   Login
Location: Newark
(45.2500°N, 7.5833°E)
Time: 01:41:06
(UTC+00:00)
Language:

Explorer 11/Cluster Stage 4 - Orbit

View from above orbital plane
View from above orbital plane
View from above satellite
View from above satellite

Ground track
Ground track

The orbit data is extracted from the following two-line orbital elements,

1   107U 61013A   20027.82481272  .00000286  00000-0  15398-4 0  9990
2   107  28.7900 261.2939 0547123 243.4720 110.8758 14.08895850945783
Epoch (UTC): 27 January 2020 19:47:43
Eccentricity: 0.0547123
inclination: 28.7900°
perigee height: 467 km
apogee height: 1259 km
right ascension of ascending node: 261.2939°
argument of perigee: 243.4720°
revolutions per day: 14.08895850
mean anomaly at epoch: 110.8758°
orbit number at epoch: 94578

The dashed part of the orbit path shows where the satellite is in the earth's shadow,  

DLR